TimeEDT,TemperatureF,Dew PointF,Humidity,Sea Level PressureIn,VisibilityMPH,Wind Direction,Wind SpeedMPH,Gust SpeedMPH,PrecipitationIn,Events,Conditions,WindDirDegrees,DateUTC
12:52 AM,48.9,46.9,93,30.06,10.0,Calm,Calm,-,N/A,,Overcast,0,2012-10-19 04:52:00
1:52 AM,50.0,48.0,93,30.06,10.0,Calm,Calm,-,N/A,,Overcast,0,2012-10-19 05:52:00
2:19 AM,50.0,48.2,94,30.05,10.0,Calm,Calm,-,N/A,,Overcast,0,2012-10-19 06:19:00
2:52 AM,50.0,48.0,93,30.04,10.0,Calm,Calm,-,N/A,,Overcast,0,2012-10-19 06:52:00
3:52 AM,51.1,48.9,92,30.01,10.0,Calm,Calm,-,0.00,,Overcast,0,2012-10-19 07:52:00
4:52 AM,53.1,50.0,89,30.00,10.0,Calm,Calm,-,N/A,,Overcast,0,2012-10-19 08:52:00
5:18 AM,53.6,50.0,88,30.00,10.0,Calm,Calm,-,0.00,Rain,Light Rain,0,2012-10-19 09:18:00
5:25 AM,53.6,51.8,94,30.00,10.0,Calm,Calm,-,0.00,Rain,Light Rain,0,2012-10-19 09:25:00
5:52 AM,54.0,51.1,90,30.01,7.0,SE,4.6,-,0.04,Rain,Rain,140,2012-10-19 09:52:00
6:38 AM,53.6,51.8,94,30.00,10.0,Calm,Calm,-,0.02,,Overcast,0,2012-10-19 10:38:00
6:52 AM,53.1,52.0,96,30.01,10.0,Calm,Calm,-,0.02,Rain,Light Rain,0,2012-10-19 10:52:00
7:16 AM,53.6,51.8,94,29.99,7.0,Calm,Calm,-,0.01,Rain,Light Rain,0,2012-10-19 11:16:00
7:34 AM,53.6,51.8,94,29.99,9.0,Calm,Calm,-,0.01,Rain,Light Rain,0,2012-10-19 11:34:00
7:52 AM,53.1,52.0,96,30.00,10.0,Calm,Calm,-,0.01,Rain,Light Rain,0,2012-10-19 11:52:00
8:52 AM,54.0,53.1,97,29.99,2.0,Calm,Calm,-,0.07,Rain,Rain,0,2012-10-19 12:52:00
9:08 AM,55.4,53.6,94,29.98,4.0,SSE,3.5,-,0.03,Rain,Light Rain,150,2012-10-19 13:08:00
9:42 AM,57.2,55.4,94,29.97,6.0,ESE,3.5,-,0.08,Rain,Light Rain,110,2012-10-19 13:42:00
9:52 AM,57.0,55.0,93,29.96,10.0,Calm,Calm,-,0.09,Rain,Light Rain,0,2012-10-19 13:52:00
10:31 AM,59.0,55.4,88,29.94,10.0,SE,6.9,-,0.00,,Overcast,140,2012-10-19 14:31:00
10:52 AM,59.0,55.9,90,29.95,10.0,SE,3.5,-,0.00,,Overcast,140,2012-10-19 14:52:00
11:25 AM,60.8,55.4,82,29.94,10.0,SE,6.9,-,N/A,,Overcast,140,2012-10-19 15:25:00
11:52 AM,59.0,55.9,90,29.93,6.0,ESE,6.9,-,0.03,Rain,Light Rain,110,2012-10-19 15:52:00
12:07 PM,59.0,57.2,94,29.91,5.0,ESE,6.9,-,0.03,Rain,Rain,120,2012-10-19 16:07:00
12:52 PM,62.1,57.9,86,29.88,10.0,ESE,9.2,-,0.05,,Overcast,120,2012-10-19 16:52:00
1:42 PM,62.6,57.2,82,29.84,10.0,East,10.4,18.4,0.01,Rain,Rain,100,2012-10-19 17:42:00
1:50 PM,62.6,57.2,82,29.84,9.0,ESE,12.7,20.7,0.01,Rain,Light Rain,110,2012-10-19 17:50:00
1:52 PM,63.0,57.9,84,29.84,8.0,ESE,10.4,20.7,0.02,Rain,Light Rain,120,2012-10-19 17:52:00
2:23 PM,62.6,57.2,82,29.83,10.0,East,8.1,16.1,0.02,Rain,Light Rain,100,2012-10-19 18:23:00
2:52 PM,61.0,59.0,93,29.84,2.5,SE,5.8,-,0.07,Rain,Rain,140,2012-10-19 18:52:00
3:28 PM,62.6,60.8,94,29.82,3.0,ESE,8.1,-,0.14,Rain,Rain,120,2012-10-19 19:28:00
3:52 PM,62.1,60.1,93,29.81,3.0,ESE,4.6,-,0.18,Rain,Light Rain,120,2012-10-19 19:52:00
4:03 PM,62.6,60.8,94,29.80,2.5,East,5.8,-,0.03,Rain,Rain,100,2012-10-19 20:03:00
4:15 PM,62.6,60.8,94,29.79,6.0,ESE,3.5,-,0.04,Rain,Light Rain,110,2012-10-19 20:15:00
4:52 PM,63.0,62.1,97,29.77,5.0,ESE,9.2,-,0.07,Rain,Light Rain,120,2012-10-19 20:52:00
5:52 PM,64.0,62.1,93,29.75,10.0,SSE,5.8,-,0.01,Rain,Light Rain,160,2012-10-19 21:52:00
6:03 PM,64.4,62.6,94,29.74,8.0,SE,8.1,-,0.00,Rain,Light Rain,140,2012-10-19 22:03:00
6:52 PM,63.0,62.1,97,29.74,7.0,South,4.6,-,0.07,Rain,Light Rain,190,2012-10-19 22:52:00
7:52 PM,63.0,62.1,97,29.73,10.0,Calm,Calm,-,0.01,Rain,Light Rain,0,2012-10-19 23:52:00
8:01 PM,62.6,62.6,100,29.72,8.0,Calm,Calm,-,0.01,Rain,Light Rain,0,2012-10-20 00:01:00
8:42 PM,62.6,62.6,100,29.72,2.5,Calm,Calm,-,0.02,Rain,Light Rain,0,2012-10-20 00:42:00
8:49 PM,62.6,62.6,100,29.72,2.0,Calm,Calm,-,0.02,Rain,Light Rain,0,2012-10-20 00:49:00
8:52 PM,62.1,62.1,100,29.73,1.8,Calm,Calm,-,0.02,Rain,Light Rain,0,2012-10-20 00:52:00
9:20 PM,62.6,60.8,94,29.73,1.0,Calm,Calm,-,0.01,,Overcast,0,2012-10-20 01:20:00
9:33 PM,62.6,62.6,100,29.73,1.2,Calm,Calm,-,0.01,Rain,Light Rain,0,2012-10-20 01:33:00
9:43 PM,62.6,60.8,94,29.72,0.8,Calm,Calm,-,0.01,,Overcast,0,2012-10-20 01:43:00
9:52 PM,62.1,61.0,96,29.73,0.8,Calm,Calm,-,0.01,Rain,Light Rain,0,2012-10-20 01:52:00
10:03 PM,62.6,60.8,94,29.72,1.0,Calm,Calm,-,0.00,,Overcast,0,2012-10-20 02:03:00
10:16 PM,62.6,62.6,100,29.73,1.5,Calm,Calm,-,0.00,,Overcast,0,2012-10-20 02:16:00
10:52 PM,62.1,62.1,100,29.73,3.0,Calm,Calm,-,0.01,Rain,Light Rain,0,2012-10-20 02:52:00
11:22 PM,64.4,62.6,94,29.72,10.0,SSE,3.5,-,0.00,,Overcast,150,2012-10-20 03:22:00
11:49 PM,62.6,62.6,100,29.72,9.0,Calm,Calm,-,0.00,,Overcast,0,2012-10-20 03:49:00
11:52 PM,63.0,62.1,97,29.73,5.0,Calm,Calm,-,0.00,,Overcast,0,2012-10-20 03:52:00